Location: Unspecified
(0.0000°N, 0.0000°E)
Time: 13:27:26
(UTC+00:00)

COSMOS 2508 - Pass Details

Date: 10 October 2020
Orbit: 1484 x 1504 km, 82.5° (Epoch: 26 October)

Event Time Altitude Azimuth Distance (km) Brightness Sun altitude
Rises 04:51:47 0° 20° (NNE) 4,608 ? -13.7°
Reaches altitude 10° 04:55:14 10° 32° (NNE) 3,627 ? -12.8°
Maximum altitude 05:02:18 28° 87° (E) 2,510 ? -11.1°
Drops below altitude 10° 05:09:19 10° 141° (SE) 3,627 ? -9.3°
Sets 05:12:44 0° 152° (SSE) 4,608 ? -8.5°
